[Date Prev][Date Next][Thread Prev][Thread Next] - [Date Index][Thread Index][Author Index]
MIR & ISS Keps 1-29
- Subject: [sarex] MIR & ISS Keps 1-29
- From: "Dr Dave Larsen [ PhD ]" <doc@xxxxxxxxxxx>
- Date: Fri, 29 Jan 1999 07:59:47 -0800
MIR
1 16609U 86017A 99029.16901537 .00113740 00000-0 86260-3 0 1561
2 16609 51.6607 335.8565 0010325 56.8553 303.3569 15.71433033739533
ISS
1 25544U 98067A 99029.13010623 .00020245 00000-0 28046-3 0 2635
2 25544 51.5909 177.1791 0004512 63.0816 297.0598 15.57055002 10900
----
Via the sarex mailing list at AMSAT.ORG courtesy of AMSAT-NA.
To unsubscribe, send "unsubscribe sarex" to Majordomo@amsat.org
AMSAT Home